KJAC Airport Information

Runway Information
Runway 01 Length 6300 ft width 150 ft
Elevation 6413 ft Threshold 0 ft Heading 20
Runway 19 Length 6300 ft Width 150 ft
Elevation 6451 ft Threshold 0 ft Heading 200
Airport Frequencies
Type ATIS Name ATIS Frequency 120.625 MHZ
Type AWOS Name AWOS 3 Frequency 135.175 MHZ
Type CNTR Name SALT LAKE Frequency 133.25 MHZ
Type CTAF Name CTAF Frequency 118.075 MHZ
Type GND Name GND Frequency 124.55 MHZ
Type RDO Name CASPER RDO Frequency 122.05 MHZ
Type TWR Name TWR Frequency 118.075 MHZ
Type UNIC Name UNICOM Frequency 122.95 MHZ
Airport Navaids
Type VOR-DME Name Jackson Frequency 115400 KHZ
Airport Weather Information & NOTAM
ADDS - METARS form results

(1139 UTC 21 April 2018)
 
METAR text: KJAC 211056Z AUTO 34004KT 10SM CLR M01/M04 A3019 RMK AO2 SLP211 T10061039 FZRANO
Conditions at: KJAC (JACKSON , WY, US) observed 1056 UTC 21 April 2018
Temperature: -0.6°C (31°F)
Dewpoint: -3.9°C (25°F) [RH = 78%]
Pressure (altimeter): 30.19 inches Hg (1022.4 mb)
[Sea-level pressure: 1021.1 mb]
Winds: from the NNW (340 degrees) at 5 MPH (4 knots; 2.1 m/s)
Visibility: 10 or more miles (16+ km)
Ceiling: at least 12,000 feet AGL
Clouds: sky clear below 12,000 feet AGL
Weather: automated observation with no human augmentation;
there may or may not be significant weather present at this time